| time (UTC) | temp F | wind direction | speed MPH | gust MPH | rain 1hr in | rain 24hr in | rain mn in | humidity % | barometer mb |
| 20260507214959 | 59 | 71 | 2.0 | 5.0 | 0.00 | 0.65 | 0.34 | 63 | 1003.3 |
| 20260507214458 | 59 | 74 | 2.0 | 5.0 | 0.00 | 0.65 | 0.34 | 61 | 1003.3 |
| 20260507213959 | 60 | 28 | 2.0 | 4.0 | 0.00 | 0.65 | 0.34 | 61 | 1003.2 |
| 20260507213459 | 60 | 29 | 2.0 | 5.0 | 0.00 | 0.65 | 0.34 | 59 | 1003.2 |
| 20260507213000 | 60 | 61 | 2.0 | 7.0 | 0.00 | 0.65 | 0.34 | 60 | 1003.1 |
| 20260507212458 | 59 | 59 | 2.0 | 7.0 | 0.00 | 0.65 | 0.34 | 60 | 1003.2 |
| 20260507211459 | 60 | 28 | 2.0 | 6.0 | 0.00 | 0.65 | 0.34 | 62 | 1003.0 |
| 20260507210959 | 60 | 5 | 3.0 | 7.0 | 0.00 | 0.65 | 0.34 | 61 | 1003.0 |
| 20260507210004 | 61 | 12 | 3.0 | 6.0 | 0.00 | 0.65 | 0.34 | 57 | 1003.0 |
| 20260507205459 | 62 | 75 | 2.0 | 6.0 | 0.00 | 0.65 | 0.34 | 57 | 1003.0 |
| 20260507205000 | 63 | 96 | 2.0 | 7.0 | 0.00 | 0.65 | 0.34 | 53 | 1002.9 |
| 20260507204500 | 64 | 53 | 3.0 | 9.0 | 0.00 | 0.65 | 0.34 | 44 | 1002.9 |
| 20260507203459 | 64 | 36 | 4.0 | 8.0 | 0.00 | 0.65 | 0.34 | 51 | 1002.8 |
| 20260507202459 | 64 | 5 | 3.0 | 10.0 | 0.00 | 0.65 | 0.34 | 55 | 1002.7 |
| 20260507202000 | 64 | 90 | 2.0 | 6.0 | 0.00 | 0.65 | 0.34 | 47 | 1002.7 |
| 20260507201459 | 63 | 86 | 3.0 | 6.0 | 0.00 | 0.65 | 0.34 | 51 | 1002.6 |
| 20260507201000 | 63 | 40 | 5.0 | 12.0 | 0.00 | 0.65 | 0.34 | 51 | 1002.7 |
| 20260507200500 | 62 | 122 | 5.0 | 12.0 | 0.00 | 0.65 | 0.34 | 56 | 1002.6 |
| 20260507195459 | 63 | 89 | 6.0 | 12.0 | 0.00 | 0.65 | 0.34 | 57 | 1002.8 |
| 20260507194959 | 63 | 123 | 6.0 | 12.0 | 0.00 | 0.65 | 0.34 | 56 | 1002.9 |
| 20260507194501 | 63 | 161 | 5.0 | 12.0 | 0.00 | 0.65 | 0.34 | 54 | 1003.0 |
| 20260507193959 | 63 | 85 | 5.0 | 10.0 | 0.00 | 0.65 | 0.34 | 53 | 1003.1 |
| 20260507193458 | 63 | 106 | 6.0 | 11.0 | 0.00 | 0.65 | 0.34 | 58 | 1003.1 |
| 20260507192958 | 63 | 80 | 6.0 | 11.0 | 0.00 | 0.65 | 0.34 | 54 | 1003.2 |
| 20260507191458 | 63 | 107 | 6.0 | 12.0 | 0.00 | 0.65 | 0.34 | 55 | 1003.4 |
| 20260507190959 | 63 | 148 | 5.0 | 12.0 | 0.00 | 0.65 | 0.34 | 58 | 1003.4 |
| 20260507190458 | 63 | 98 | 5.0 | 10.0 | 0.00 | 0.65 | 0.34 | 57 | 1003.5 |
| 20260507184959 | 64 | 111 | 4.0 | 8.0 | 0.00 | 0.65 | 0.34 | 54 | 1003.6 |
| 20260507184458 | 64 | 173 | 4.0 | 7.0 | 0.00 | 0.65 | 0.34 | 50 | 1003.7 |
| 20260507183959 | 64 | 136 | 4.0 | 7.0 | 0.00 | 0.65 | 0.34 | 51 | 1003.8 |
| 20260507183459 | 63 | 131 | 5.0 | 8.0 | 0.00 | 0.65 | 0.34 | 54 | 1003.9 |
| 20260507182959 | 62 | 99 | 6.0 | 9.0 | 0.00 | 0.65 | 0.34 | 57 | 1004.0 |
| 20260507182458 | 60 | 117 | 6.0 | 11.0 | 0.00 | 0.65 | 0.34 | 56 | 1004.0 |
| 20260507181959 | 61 | 146 | 7.0 | 11.0 | 0.00 | 0.65 | 0.34 | 55 | 1004.1 |
| 20260507181459 | 61 | 108 | 6.0 | 11.0 | 0.00 | 0.65 | 0.34 | 58 | 1004.0 |
| 20260507180458 | 61 | 145 | 4.0 | 9.0 | 0.00 | 0.65 | 0.34 | 53 | 1004.2 |
| 20260507175459 | 59 | 106 | 2.0 | 6.0 | 0.00 | 0.65 | 0.34 | 53 | 1004.4 |
| 20260507175000 | 60 | 90 | 2.0 | 5.0 | 0.00 | 0.65 | 0.34 | 56 | 1004.3 |
| 20260507174500 | 60 | 53 | 2.0 | 5.0 | 0.00 | 0.65 | 0.34 | 52 | 1004.4 |
| 20260507174001 | 62 | 42 | 2.0 | 7.0 | 0.00 | 0.65 | 0.34 | 48 | 1004.4 |
| 20260507173459 | 62 | 60 | 2.0 | 7.0 | 0.00 | 0.65 | 0.34 | 52 | 1004.5 |
| 20260507173000 | 61 | 26 | 2.0 | 5.0 | 0.00 | 0.65 | 0.34 | 56 | 1004.5 |
| 20260507172500 | 60 | 45 | 2.0 | 6.0 | 0.00 | 0.65 | 0.34 | 49 | 1004.6 |
| 20260507171458 | 60 | 338 | 2.0 | 5.0 | 0.00 | 0.65 | 0.34 | 53 | 1004.7 |
| 20260507171000 | 61 | 81 | 2.0 | 5.0 | 0.00 | 0.65 | 0.34 | 52 | 1004.7 |
| 20260507170459 | 59 | 71 | 2.0 | 7.0 | 0.00 | 0.65 | 0.34 | 52 | 1004.8 |
| 20260507165500 | 61 | 80 | 2.0 | 6.0 | 0.00 | 0.65 | 0.34 | 55 | 1004.8 |
| 20260507165001 | 60 | 5 | 2.0 | 5.0 | 0.00 | 0.65 | 0.34 | 48 | 1004.9 |
| 20260507164000 | 60 | 82 | 2.0 | 11.0 | 0.00 | 0.65 | 0.34 | 51 | 1004.9 |
| 20260507163458 | 58 | 37 | 4.0 | 11.0 | 0.00 | 0.65 | 0.34 | 53 | 1005.1 |
| 20260507163000 | 59 | 351 | 3.0 | 8.0 | 0.00 | 0.65 | 0.34 | 50 | 1005.1 |
| 20260507162001 | 58 | 90 | 3.0 | 8.0 | 0.00 | 0.65 | 0.34 | 53 | 1005.1 |
| 20260507161000 | 59 | 70 | 3.0 | 9.0 | 0.00 | 0.65 | 0.34 | 55 | 1005.3 |
| 20260507160459 | 60 | 90 | 3.0 | 6.0 | 0.00 | 0.65 | 0.34 | 54 | 1005.6 |
| 20260507160000 | 60 | 102 | 3.0 | 6.0 | 0.00 | 0.65 | 0.34 | 59 | 1005.6 |
| 20260507155500 | 60 | 83 | 3.0 | 6.0 | 0.00 | 0.65 | 0.34 | 54 | 1005.6 |
| 20260507154001 | 60 | 42 | 2.0 | 7.0 | 0.00 | 0.65 | 0.34 | 67 | 1005.7 |
| 20260507153459 | 60 | 355 | 2.0 | 5.0 | 0.00 | 0.65 | 0.34 | 62 | 1005.8 |
| 20260507153000 | 60 | 75 | 2.0 | 7.0 | 0.00 | 0.65 | 0.34 | 69 | 1005.8 |
| 20260507152459 | 57 | 325 | 3.0 | 8.0 | 0.00 | 0.65 | 0.34 | 67 | 1005.8 |
| 20260507151959 | 57 | 68 | 4.0 | 9.0 | 0.00 | 0.65 | 0.34 | 65 | 1005.9 |
| 20260507151001 | 60 | 360 | 4.0 | 9.0 | 0.00 | 0.65 | 0.34 | 66 | 1005.8 |
| 20260507150500 | 60 | 327 | 3.0 | 9.0 | 0.00 | 0.65 | 0.34 | 67 | 1005.8 |
| 20260507150001 | 59 | 5 | 4.0 | 9.0 | 0.00 | 0.65 | 0.34 | 69 | 1005.8 |
| 20260507145500 | 58 | 309 | 3.0 | 8.0 | 0.00 | 0.65 | 0.34 | 66 | 1006.0 |
| 20260507144959 | 57 | 319 | 2.0 | 5.0 | 0.00 | 0.65 | 0.34 | 72 | 1005.9 |
| 20260507144459 | 58 | 329 | 2.0 | 7.0 | 0.00 | 0.65 | 0.34 | 70 | 1005.9 |
| 20260507144000 | 57 | 5 | 3.0 | 7.0 | 0.00 | 0.65 | 0.34 | 74 | 1005.8 |
| 20260507143459 | 56 | 355 | 3.0 | 6.0 | 0.00 | 0.65 | 0.34 | 72 | 1005.7 |
| 20260507143000 | 56 | 348 | 2.0 | 5.0 | 0.00 | 0.65 | 0.34 | 78 | 1005.9 |
| 20260507142459 | 56 | 350 | 2.0 | 7.0 | 0.00 | 0.65 | 0.34 | 76 | 1006.0 |
| 20260507142000 | 56 | 314 | 3.0 | 7.0 | 0.00 | 0.65 | 0.34 | 75 | 1006.0 |
| 20260507141459 | 57 | 309 | 3.0 | 7.0 | 0.00 | 0.65 | 0.34 | 74 | 1006.0 |
| 20260507141001 | 57 | 5 | 3.0 | 10.0 | 0.00 | 0.65 | 0.34 | 77 | 1006.2 |
| 20260507140500 | 55 | 360 | 3.0 | 10.0 | 0.00 | 0.65 | 0.34 | 75 | 1006.2 |
| 20260507140005 | 56 | 302 | 2.0 | 6.0 | 0.00 | 0.65 | 0.34 | 83 | 1006.2 |
| 20260507135500 | 55 | 291 | 2.0 | 7.0 | 0.01 | 0.65 | 0.34 | 80 | 1006.0 |
| 20260507135001 | 55 | 299 | 2.0 | 7.0 | 0.01 | 0.65 | 0.34 | 80 | 1006.1 |
| 20260507134459 | 55 | 303 | 1.0 | 7.0 | 0.01 | 0.65 | 0.34 | 83 | 1006.0 |
| 20260507134000 | 55 | 5 | 1.0 | 7.0 | 0.01 | 0.65 | 0.34 | 86 | 1006.0 |
| 20260507133459 | 54 | 360 | 1.0 | 7.0 | 0.01 | 0.65 | 0.34 | 87 | 1006.2 |
| 20260507133000 | 53 | 294 | 1.0 | 8.0 | 0.01 | 0.65 | 0.34 | 87 | 1006.1 |
| 20260507132500 | 54 | 229 | 1.0 | 8.0 | 0.01 | 0.65 | 0.34 | 88 | 1006.1 |
| 20260507132000 | 53 | 269 | 1.0 | 5.0 | 0.01 | 0.65 | 0.34 | 89 | 1006.2 |
| 20260507131500 | 52 | 299 | 0.0 | 5.0 | 0.01 | 0.65 | 0.34 | 90 | 1006.1 |
| 20260507131000 | 52 | 201 | 0.0 | 4.0 | 0.01 | 0.65 | 0.34 | 91 | 1006.0 |
| 20260507130459 | 51 | 255 | 0.0 | 5.0 | 0.02 | 0.65 | 0.34 | 90 | 1006.1 |
| 20260507130001 | 51 | 257 | 0.0 | 5.0 | 0.02 | 0.65 | 0.34 | 90 | 1006.2 |
| 20260507125500 | 51 | 267 | 0.0 | 2.0 | 0.01 | 0.64 | 0.33 | 91 | 1006.2 |
| 20260507124459 | 50 | 254 | 0.0 | 2.0 | 0.01 | 0.64 | 0.33 | 91 | 1006.0 |
| 20260507124001 | 50 | 254 | 0.0 | 2.0 | 0.01 | 0.64 | 0.33 | 91 | 1006.2 |
| 20260507123000 | 50 | 264 | 0.0 | 0.0 | 0.01 | 0.64 | 0.33 | 91 | 1006.6 |
| 20260507122500 | 49 | 264 | 0.0 | 1.0 | 0.02 | 0.64 | 0.33 | 91 | 1006.4 |
| 20260507122000 | 50 | 264 | 0.0 | 1.0 | 0.03 | 0.64 | 0.33 | 91 | 1006.3 |
| 20260507121500 | 49 | 264 | 0.0 | 1.0 | 0.04 | 0.64 | 0.33 | 91 | 1006.1 |
| 20260507121007 | 49 | 264 | 0.0 | 2.0 | 0.04 | 0.64 | 0.33 | 91 | 1006.1 |
| 20260507120459 | 50 | 263 | 0.0 | 2.0 | 0.03 | 0.63 | 0.32 | 91 | 1006.2 |
| 20260507120002 | 50 | 263 | 0.0 | 2.0 | 0.03 | 0.63 | 0.32 | 91 | 1006.3 |
| 20260507115459 | 49 | 309 | 0.0 | 1.0 | 0.03 | 0.63 | 0.32 | 91 | 1006.1 |
| 20260507115000 | 49 | 309 | 0.0 | 1.0 | 0.03 | 0.63 | 0.32 | 91 | 1006.3 |
| 20260507114500 | 49 | 309 | 0.0 | 1.0 | 0.04 | 0.63 | 0.32 | 91 | 1006.1 |
| 20260507114001 | 49 | 310 | 0.0 | 2.0 | 0.04 | 0.63 | 0.32 | 91 | 1006.0 |
| 20260507113500 | 49 | 310 | 0.0 | 2.0 | 0.05 | 0.63 | 0.32 | 91 | 1006.3 |
| 20260507113000 | 49 | 311 | 0.0 | 2.0 | 0.05 | 0.63 | 0.32 | 91 | 1006.1 |
| 20260507112459 | 49 | 311 | 0.0 | 4.0 | 0.04 | 0.62 | 0.31 | 91 | 1006.3 |
| 20260507111000 | 50 | 311 | 1.0 | 4.0 | 0.03 | 0.60 | 0.29 | 91 | 1005.7 |
| 20260507110459 | 50 | 301 | 1.0 | 4.0 | 0.03 | 0.60 | 0.29 | 91 | 1006.0 |
| 20260507105458 | 50 | 190 | 1.0 | 6.0 | 0.05 | 0.60 | 0.29 | 91 | 1005.7 |
| 20260507104958 | 50 | 346 | 1.0 | 6.0 | 0.05 | 0.60 | 0.29 | 91 | 1005.5 |
| 20260507104458 | 50 | 27 | 1.0 | 5.0 | 0.04 | 0.59 | 0.28 | 91 | 1005.4 |
| 20260507103959 | 50 | 319 | 0.0 | 2.0 | 0.05 | 0.59 | 0.28 | 91 | 1005.8 |
| 20260507103457 | 50 | 269 | 0.0 | 1.0 | 0.04 | 0.58 | 0.27 | 91 | 1005.8 |
| 20260507102958 | 51 | 269 | 0.0 | 5.0 | 0.04 | 0.58 | 0.27 | 91 | 1005.5 |
| 20260507102459 | 51 | 315 | 0.0 | 5.0 | 0.05 | 0.58 | 0.27 | 91 | 1005.5 |
| 20260507101958 | 51 | 281 | 0.0 | 4.0 | 0.04 | 0.57 | 0.26 | 91 | 1005.4 |
| 20260507101458 | 51 | 276 | 0.0 | 4.0 | 0.06 | 0.57 | 0.26 | 91 | 1005.5 |
| 20260507100959 | 51 | 293 | 0.0 | 2.0 | 0.08 | 0.57 | 0.26 | 91 | 1005.4 |
| 20260507100458 | 51 | 294 | 0.0 | 1.0 | 0.07 | 0.56 | 0.25 | 91 | 1005.3 |
| 20260507100005 | 51 | 293 | 0.0 | 6.0 | 0.07 | 0.55 | 0.24 | 91 | 1005.4 |
| 20260507095459 | 51 | 293 | 1.0 | 6.0 | 0.07 | 0.55 | 0.24 | 91 | 1005.4 |
| 20260507095000 | 51 | 311 | 1.0 | 4.0 | 0.07 | 0.55 | 0.24 | 91 | 1005.3 |
| 20260507094459 | 51 | 311 | 0.0 | 4.0 | 0.08 | 0.55 | 0.24 | 91 | 1005.2 |
| 20260507093459 | 52 | 355 | 0.0 | 4.0 | 0.07 | 0.54 | 0.23 | 91 | 1004.9 |
| 20260507093000 | 53 | 298 | 0.0 | 4.0 | 0.08 | 0.54 | 0.23 | 91 | 1004.9 |
| 20260507092459 | 53 | 285 | 0.0 | 1.0 | 0.09 | 0.53 | 0.22 | 91 | 1004.8 |
| 20260507092000 | 53 | 285 | 0.0 | 2.0 | 0.11 | 0.53 | 0.22 | 91 | 1004.8 |
| 20260507091458 | 53 | 285 | 0.0 | 2.0 | 0.11 | 0.51 | 0.20 | 91 | 1005.1 |
| 20260507090959 | 54 | 325 | 0.0 | 5.0 | 0.12 | 0.49 | 0.18 | 91 | 1005.4 |
| 20260507090459 | 54 | 284 | 0.0 | 5.0 | 0.16 | 0.49 | 0.18 | 91 | 1005.2 |
| 20260507090002 | 54 | 244 | 0.0 | 4.0 | 0.17 | 0.48 | 0.17 | 91 | 1004.9 |
| 20260507084959 | 54 | 5 | 0.0 | 4.0 | 0.17 | 0.48 | 0.17 | 91 | 1004.4 |
| 20260507084458 | 55 | 9 | 0.0 | 4.0 | 0.16 | 0.47 | 0.16 | 91 | 1004.5 |
| 20260507083959 | 55 | 292 | 0.0 | 1.0 | 0.16 | 0.47 | 0.16 | 91 | 1004.8 |
| 20260507083458 | 55 | 296 | 0.0 | 2.0 | 0.16 | 0.47 | 0.16 | 91 | 1005.1 |
| 20260507083010 | 55 | 300 | 0.0 | 4.0 | 0.15 | 0.46 | 0.15 | 91 | 1004.8 |
| 20260507082458 | 55 | 282 | 1.0 | 8.0 | 0.13 | 0.44 | 0.13 | 91 | 1004.7 |
| 20260507081959 | 56 | 29 | 1.0 | 8.0 | 0.10 | 0.41 | 0.10 | 91 | 1005.0 |
| 20260507081458 | 56 | 267 | 0.0 | 2.0 | 0.08 | 0.39 | 0.08 | 92 | 1004.5 |
| 20260507080958 | 56 | 219 | 0.0 | 1.0 | 0.05 | 0.36 | 0.05 | 91 | 1004.3 |
| 20260507080458 | 56 | 219 | 0.0 | 2.0 | 0.01 | 0.32 | 0.01 | 91 | 1004.6 |
| 20260507075459 | 56 | 217 | 0.0 | 0.0 | 0.00 | 0.31 | 0.00 | 91 | 1003.9 |
| 20260507074958 | 56 | 217 | 0.0 | 0.0 | 0.00 | 0.31 | 0.00 | 91 | 1003.9 |
| 20260507074459 | 56 | 217 | 0.0 | 0.0 | 0.00 | 0.31 | 0.00 | 91 | 1003.7 |
| 20260507073958 | 56 | 217 | 0.0 | 0.0 | 0.00 | 0.31 | 0.00 | 91 | 1003.8 |
| 20260507073458 | 56 | 217 | 0.0 | 2.0 | 0.00 | 0.31 | 0.00 | 91 | 1003.8 |
| 20260507072958 | 56 | 220 | 0.0 | 2.0 | 0.00 | 0.31 | 0.00 | 91 | 1003.9 |
| 20260507072458 | 56 | 227 | 0.0 | 1.0 | 0.00 | 0.31 | 0.00 | 91 | 1003.8 |
| 20260507071959 | 56 | 227 | 0.0 | 2.0 | 0.00 | 0.31 | 0.00 | 91 | 1003.8 |
| 20260507071530 | 56 | 227 | 0.0 | 2.0 | 0.00 | 0.31 | 0.00 | 91 | 1003.7 |
| 20260507070512 | 56 | 242 | 0.0 | 5.0 | 0.00 | 0.31 | 0.00 | 91 | 1003.7 |
| 20260507070009 | 56 | 178 | 0.0 | 5.0 | 0.00 | 0.31 | 0.00 | 91 | 1003.9 |
| 20260507065006 | 56 | 205 | 0.0 | 1.0 | 0.00 | 0.31 | 0.00 | 91 | 1004.1 |
| 20260507064514 | 56 | 205 | 0.0 | 5.0 | 0.00 | 0.31 | 0.00 | 91 | 1004.0 |
| 20260507064021 | 56 | 205 | 0.0 | 5.0 | 0.00 | 0.31 | 0.00 | 91 | 1003.9 |
| 20260507063028 | 56 | 200 | 1.0 | 5.0 | 0.00 | 0.31 | 0.00 | 91 | 1003.7 |
| 20260507062517 | 56 | 218 | 1.0 | 6.0 | 0.00 | 0.31 | 0.00 | 90 | 1003.8 |
| 20260507061511 | 56 | 183 | 0.0 | 6.0 | 0.00 | 0.31 | 0.00 | 90 | 1004.1 |
| 20260507061008 | 56 | 183 | 1.0 | 6.0 | 0.00 | 0.31 | 0.00 | 90 | 1004.2 |
| 20260507060514 | 56 | 183 | 2.0 | 6.0 | 0.00 | 0.31 | 0.00 | 90 | 1004.2 |
| 20260507060000 | 56 | 196 | 2.0 | 7.0 | 0.00 | 0.31 | 0.00 | 90 | 1004.3 |
| 20260507055458 | 56 | 182 | 2.0 | 7.0 | 0.00 | 0.31 | 0.00 | 90 | 1004.5 |
| 20260507055000 | 56 | 178 | 2.0 | 7.0 | 0.00 | 0.31 | 0.00 | 90 | 1004.3 |
| 20260507054458 | 56 | 180 | 2.0 | 8.0 | 0.00 | 0.31 | 0.00 | 90 | 1004.3 |
| 20260507054004 | 56 | 219 | 3.0 | 8.0 | 0.00 | 0.31 | 0.00 | 90 | 1004.5 |
| 20260507053511 | 57 | 212 | 3.0 | 9.0 | 0.00 | 0.31 | 0.00 | 90 | 1004.5 |
| 20260507053012 | 57 | 190 | 3.0 | 9.0 | 0.00 | 0.31 | 0.00 | 90 | 1004.5 |
| 20260507052500 | 57 | 196 | 3.0 | 8.0 | 0.00 | 0.31 | 0.00 | 90 | 1004.4 |
| 20260507052007 | 57 | 199 | 3.0 | 8.0 | 0.00 | 0.31 | 0.00 | 90 | 1004.7 |
| 20260507051507 | 57 | 190 | 4.0 | 8.0 | 0.00 | 0.31 | 0.00 | 90 | 1004.7 |
| 20260507051018 | 57 | 194 | 4.0 | 8.0 | 0.00 | 0.31 | 0.00 | 90 | 1004.8 |
| 20260507050007 | 57 | 188 | 3.0 | 8.0 | 0.00 | 0.31 | 0.00 | 90 | 1004.8 |
| 20260507045459 | 57 | 202 | 2.0 | 9.0 | 0.00 | 0.31 | 0.00 | 90 | 1004.9 |
| 20260507043958 | 57 | 207 | 4.0 | 14.0 | 0.00 | 0.31 | 0.00 | 90 | 1004.7 |
| 20260507043521 | 57 | 176 | 4.0 | 14.0 | 0.00 | 0.31 | 0.00 | 90 | 1004.7 |
| 20260507043010 | 57 | 207 | 4.0 | 14.0 | 0.00 | 0.31 | 0.00 | 90 | 1004.8 |
| 20260507042459 | 57 | 188 | 4.0 | 10.0 | 0.00 | 0.31 | 0.00 | 90 | 1004.7 |
| 20260507042001 | 57 | 166 | 4.0 | 15.0 | 0.00 | 0.31 | 0.00 | 90 | 1004.7 |
| 20260507041510 | 57 | 239 | 3.0 | 15.0 | 0.00 | 0.31 | 0.00 | 90 | 1004.7 |
| 20260507041023 | 57 | 209 | 4.0 | 11.0 | 0.00 | 0.31 | 0.00 | 90 | 1004.6 |
| 20260507040501 | 57 | 248 | 4.0 | 11.0 | 0.00 | 0.31 | 0.00 | 90 | 1004.7 |
| 20260507035501 | 57 | 207 | 5.0 | 15.0 | 0.00 | 0.31 | 0.31 | 90 | 1004.7 |
| 20260507035005 | 57 | 170 | 5.0 | 14.0 | 0.00 | 0.31 | 0.31 | 90 | 1004.8 |
| 20260507034018 | 57 | 200 | 5.0 | 12.0 | 0.00 | 0.31 | 0.31 | 90 | 1005.0 |
| 20260507033507 | 57 | 164 | 5.0 | 16.0 | 0.00 | 0.31 | 0.31 | 90 | 1005.0 |
| 20260507033011 | 57 | 207 | 6.0 | 19.0 | 0.00 | 0.31 | 0.31 | 90 | 1005.0 |
| 20260507032502 | 57 | 196 | 6.0 | 19.0 | 0.00 | 0.31 | 0.31 | 90 | 1004.9 |
| 20260507032009 | 57 | 266 | 6.0 | 15.0 | 0.00 | 0.31 | 0.31 | 90 | 1004.8 |
| 20260507031501 | 57 | 206 | 6.0 | 16.0 | 0.00 | 0.31 | 0.31 | 90 | 1004.7 |
| 20260507030505 | 57 | 170 | 5.0 | 16.0 | 0.00 | 0.31 | 0.31 | 90 | 1004.6 |
| 20260507030002 | 57 | 134 | 5.0 | 14.0 | 0.00 | 0.31 | 0.31 | 90 | 1004.4 |
| 20260507025532 | 57 | 197 | 6.0 | 14.0 | 0.00 | 0.31 | 0.31 | 90 | 1004.2 |
| 20260507025006 | 57 | 180 | 6.0 | 15.0 | 0.00 | 0.31 | 0.31 | 90 | 1004.3 |
| 20260507024005 | 57 | 235 | 6.0 | 16.0 | 0.00 | 0.31 | 0.31 | 90 | 1004.4 |
| 20260507023527 | 57 | 186 | 6.0 | 16.0 | 0.00 | 0.31 | 0.31 | 90 | 1004.5 |
| 20260507023009 | 57 | 180 | 4.0 | 16.0 | 0.00 | 0.31 | 0.31 | 90 | 1004.6 |
| 20260507022523 | 57 | 162 | 5.0 | 14.0 | 0.00 | 0.31 | 0.31 | 90 | 1004.7 |
| 20260507021505 | 57 | 160 | 5.0 | 13.0 | 0.00 | 0.31 | 0.31 | 90 | 1004.9 |
| 20260507021011 | 57 | 192 | 7.0 | 16.0 | 0.00 | 0.31 | 0.31 | 90 | 1005.0 |
| 20260507020503 | 57 | 172 | 7.0 | 16.0 | 0.00 | 0.31 | 0.31 | 90 | 1005.0 |
| 20260507020028 | 57 | 229 | 6.0 | 13.0 | 0.00 | 0.31 | 0.31 | 90 | 1005.1 |
| 20260507015504 | 57 | 167 | 6.0 | 15.0 | 0.00 | 0.31 | 0.31 | 90 | 1005.3 |
| 20260507015001 | 57 | 212 | 6.0 | 15.0 | 0.01 | 0.31 | 0.31 | 90 | 1005.3 |
| 20260507014516 | 57 | 163 | 6.0 | 14.0 | 0.01 | 0.31 | 0.31 | 90 | 1005.4 |
| 20260507014009 | 57 | 170 | 7.0 | 14.0 | 0.01 | 0.31 | 0.31 | 90 | 1005.5 |
| 20260507013513 | 57 | 176 | 6.0 | 14.0 | 0.01 | 0.31 | 0.31 | 90 | 1005.5 |
| 20260507013009 | 57 | 182 | 6.0 | 16.0 | 0.01 | 0.31 | 0.31 | 90 | 1005.5 |
| 20260507012505 | 57 | 175 | 6.0 | 16.0 | 0.02 | 0.31 | 0.31 | 89 | 1005.6 |
| 20260507011505 | 58 | 158 | 6.0 | 23.0 | 0.05 | 0.31 | 0.31 | 90 | 1005.5 |
| 20260507011002 | 58 | 115 | 7.0 | 23.0 | 0.05 | 0.31 | 0.31 | 90 | 1005.6 |
| 20260507010008 | 58 | 160 | 6.0 | 20.0 | 0.06 | 0.31 | 0.31 | 90 | 1005.5 |
| 20260507005510 | 58 | 227 | 6.0 | 20.0 | 0.07 | 0.31 | 0.31 | 90 | 1005.6 |
| 20260507005007 | 58 | 204 | 7.0 | 20.0 | 0.07 | 0.30 | 0.30 | 90 | 1005.4 |
| 20260507004510 | 58 | 177 | 8.0 | 25.0 | 0.08 | 0.30 | 0.30 | 89 | 1005.6 |
| 20260507004002 | 58 | 155 | 8.0 | 25.0 | 0.10 | 0.30 | 0.30 | 90 | 1005.6 |
| 20260507003500 | 58 | 161 | 7.0 | 25.0 | 0.11 | 0.30 | 0.30 | 90 | 1005.6 |
| 20260507003023 | 58 | 177 | 6.0 | 16.0 | 0.12 | 0.30 | 0.30 | 90 | 1005.6 |
| 20260507002505 | 58 | 178 | 6.0 | 15.0 | 0.12 | 0.29 | 0.29 | 90 | 1005.6 |
| 20260507002005 | 57 | 196 | 6.0 | 16.0 | 0.13 | 0.27 | 0.27 | 89 | 1005.7 |
| 20260507001004 | 57 | 200 | 7.0 | 22.0 | 0.14 | 0.25 | 0.25 | 89 | 1005.6 |
| 20260507000501 | 57 | 226 | 6.0 | 18.0 | 0.15 | 0.25 | 0.25 | 89 | 1005.6 |
| 20260506235504 | 57 | 188 | 6.0 | 13.0 | 0.17 | 0.24 | 0.24 | 89 | 1005.5 |
| 20260506234504 | 57 | 195 | 7.0 | 15.0 | 0.17 | 0.21 | 0.21 | 89 | 1005.7 |
| 20260506234004 | 57 | 161 | 6.0 | 15.0 | 0.15 | 0.19 | 0.19 | 89 | 1005.7 |
| 20260506233510 | 57 | 223 | 6.0 | 14.0 | 0.15 | 0.19 | 0.19 | 89 | 1005.5 |
| 20260506233004 | 57 | 182 | 7.0 | 26.0 | 0.15 | 0.18 | 0.18 | 89 | 1005.5 |
| 20260506232551 | 57 | 205 | 8.0 | 26.0 | 0.15 | 0.17 | 0.17 | 89 | 1005.5 |
| 20260506232003 | 57 | 178 | 9.0 | 20.0 | 0.12 | 0.14 | 0.14 | 88 | 1005.4 |
| 20260506231503 | 57 | 177 | 8.0 | 22.0 | 0.10 | 0.12 | 0.12 | 88 | 1005.6 |
| 20260506230504 | 57 | 190 | 7.0 | 20.0 | 0.08 | 0.10 | 0.10 | 88 | 1005.6 |
| 20260506230005 | 57 | 201 | 7.0 | 19.0 | 0.06 | 0.08 | 0.08 | 88 | 1005.7 |
| 20260506225522 | 57 | 96 | 7.0 | 19.0 | 0.05 | 0.07 | 0.07 | 87 | 1005.6 |
| 20260506225000 | 57 | 166 | 7.0 | 14.0 | 0.04 | 0.05 | 0.05 | 87 | 1005.6 |
| 20260506224504 | 58 | 178 | 7.0 | 14.0 | 0.03 | 0.04 | 0.04 | 87 | 1005.6 |
| 20260506224010 | 58 | 163 | 8.0 | 19.0 | 0.03 | 0.04 | 0.04 | 86 | 1005.7 |
| 20260506223507 | 58 | 195 | 8.0 | 19.0 | 0.03 | 0.04 | 0.04 | 86 | 1005.7 |
| 20260506223022 | 58 | 258 | 8.0 | 23.0 | 0.02 | 0.03 | 0.03 | 85 | 1005.9 |
| 20260506222501 | 58 | 143 | 8.0 | 24.0 | 0.01 | 0.02 | 0.02 | 85 | 1006.0 |
| 20260506222012 | 59 | 228 | 8.0 | 24.0 | 0.02 | 0.02 | 0.02 | 85 | 1006.0 |
| 20260506221512 | 59 | 148 | 7.0 | 25.0 | 0.02 | 0.02 | 0.02 | 85 | 1005.9 |
| 20260506221001 | 59 | 243 | 8.0 | 25.0 | 0.02 | 0.02 | 0.02 | 85 | 1006.0 |
| 20260506220510 | 59 | 152 | 8.0 | 24.0 | 0.02 | 0.02 | 0.02 | 84 | 1006.0 |
| 20260506220009 | 59 | 174 | 8.0 | 20.0 | 0.02 | 0.02 | 0.02 | 84 | 1006.0 |
| 20260506215500 | 59 | 212 | 7.0 | 20.0 | 0.02 | 0.02 | 0.02 | 84 | 1006.0 |